GW6367 Weather Reports


time (UTC)temp
F
wind
direction
speed
knots
gust
knots
rain 1hr
in
rain 24hr
in
rain mn
in
humidity
%
barometer
mb
20260506013853 75 245 1.7 2.6 0.00 0.00 0.00 67 1013.0
20260506013354 76 214 3.5 4.3 0.00 0.00 0.00 66 1013.0
20260506012853 76 328 3.5 3.5 0.00 0.00 0.00 63 1013.0
20260506012354 75 248 2.6 5.2 0.00 0.00 0.00 64 1013.0
20260506011853 74 288 3.5 4.3 0.00 0.00 0.00 66 1013.0
20260506011353 74 351 2.6 4.3 0.00 0.00 0.00 66 1013.0
20260506010853 74 251 2.6 4.3 0.00 0.00 0.00 69 1013.0
20260506010353 74 233 3.5 3.5 0.00 0.00 0.00 70 1013.0
20260506005854 74 238 1.7 3.5 0.00 0.00 0.00 68 1013.0
20260506005353 74 321 2.6 2.6 0.00 0.00 0.00 69 1013.0
20260506004853 73 1 1.7 5.2 0.00 0.00 0.00 69 1013.0
20260506004353 74 344 2.6 4.3 0.00 0.00 0.00 69 1013.0
20260506003853 74 328 1.7 5.2 0.00 0.00 0.00 71 1013.0
20260506003353 73 137 2.6 4.3 0.00 0.00 0.00 72 1013.0
20260506002853 72 266 1.7 3.5 0.00 0.00 0.00 74 1013.0
20260506002353 72 52 2.6 5.2 0.00 0.00 0.00 76 1013.0
20260506001854 72 347 3.5 5.2 0.00 0.00 0.00 76 1013.0
20260506001353 72 193 2.6 6.1 0.00 0.00 0.00 76 1013.0
20260506000853 72 335 1.7 4.3 0.00 0.00 0.00 76 1013.0
20260506000354 72 325 1.7 3.5 0.00 0.00 0.00 78 1013.0
20260505235855 71 247 0.9 3.5 0.00 0.00 0.00 80 1013.0
20260505235353 71 40 3.5 5.2 0.00 0.00 0.00 79 1013.0
20260505234854 71 88 0.9 3.5 0.00 0.00 0.00 80 1013.0
20260505234353 71 183 2.6 3.5 0.00 0.00 0.00 82 1013.0
20260505233854 70 202 0.9 2.6 0.00 0.00 0.00 85 1013.0
20260505233354 70 338 2.6 5.2 0.00 0.00 0.00 86 1012.0
20260505232853 71 94 0.0 3.5 0.00 0.00 0.00 84 1013.0
20260505232353 70 249 0.0 2.6 0.00 0.00 0.00 85 1013.0
20260505231853 70 186 2.6 3.5 0.00 0.00 0.00 85 1013.0
20260505231353 70 289 1.7 2.6 0.00 0.00 0.00 85 1013.0
20260505230853 70 171 1.7 1.7 0.00 0.00 0.00 87 1013.0
20260505230353 69 320 0.9 2.6 0.00 0.00 0.00 89 1012.0
20260505225854 69 281 0.0 2.6 0.00 0.00 0.00 90 1012.0
20260505225353 67 157 0.9 2.6 0.00 0.00 0.00 92 1012.0
20260505224853 67 207 0.9 2.6 0.00 0.00 0.00 93 1012.0
20260505224353 66 325 0.0 2.6 0.00 0.00 0.00 96 1012.0
20260505223853 66 232 0.9 1.7 0.00 0.00 0.00 98 1012.0
20260505223354 66 190 0.9 1.7 0.00 0.00 0.00 98 1012.0
20260505222853 66 305 1.7 2.6 0.00 0.00 0.00 99 1012.0
20260505222353 66 182 1.7 2.6 0.00 0.00 0.00 99 1012.0
20260505221853 66 209 0.0 2.6 0.00 0.00 0.00 99 1012.0
20260505221353 66 187 1.7 2.6 0.00 0.00 0.00 99 1012.0
20260505220853 65 180 0.9 1.7 0.00 0.00 0.00 99 1012.0
20260505220353 65 256 2.6 2.6 0.00 0.00 0.00 99 1012.0
20260505215853 66 237 1.7 3.5 0.00 0.00 0.00 99 1012.0
20260505215354 66 248 0.0 1.7 0.00 0.00 0.00 99 1012.0
20260505214854 66 156 0.0 1.7 0.00 0.00 0.00 98 1012.0
20260505214353 65 69 0.0 0.9 0.00 0.00 0.00 99 1012.0
20260505213854 65 250 0.9 1.7 0.00 0.00 0.00 99 1012.0
20260505213353 65 222 1.7 2.6 0.00 0.00 0.00 99 1011.0
20260505212853 65 227 0.9 2.6 0.00 0.00 0.00 99 1011.0
20260505212353 65 195 0.9 1.7 0.00 0.00 0.00 99 1011.0
20260505211853 65 218 1.7 2.6 0.00 0.00 0.00 99 1011.0
20260505211353 65 124 0.0 1.7 0.00 0.00 0.00 99 1011.0
20260505210853 65 265 0.0 1.7 0.00 0.00 0.00 99 1011.0
20260505210353 65 231 0.0 2.6 0.00 0.00 0.00 99 1010.0
20260505205853 64 214 1.7 2.6 0.00 0.00 0.00 99 1010.0
20260505205353 65 222 2.6 3.5 0.00 0.00 0.00 99 1011.0
20260505204853 65 260 2.6 2.6 0.00 0.00 0.00 99 1010.0
20260505204355 65 152 0.0 2.6 0.00 0.00 0.00 98 1010.0
20260505203853 64 44 0.0 1.7 0.00 0.00 0.00 98 1010.0
20260505203354 64 232 0.9 2.6 0.00 0.00 0.00 99 1010.0
20260505202853 65 212 1.7 2.6 0.00 0.00 0.00 98 1010.0
20260505202354 65 227 2.6 3.5 0.00 0.00 0.00 98 1010.0
20260505201853 65 239 2.6 3.5 0.00 0.00 0.00 98 1010.0
20260505201356 65 244 1.7 2.6 0.00 0.00 0.00 98 1010.0
20260505200853 65 219 2.6 2.6 0.00 0.00 0.00 98 1010.0
20260505200354 65 272 1.7 2.6 0.00 0.00 0.00 98 1010.0
20260505195854 65 235 2.6 3.5 0.00 0.00 0.00 98 1010.0
20260505195357 65 229 1.7 2.6 0.00 0.00 0.00 98 1010.0
20260505194856 65 223 1.7 2.6 0.00 0.00 0.00 98 1010.0
20260505194353 65 234 2.6 4.3 0.00 0.00 0.00 98 1010.0
20260505193854 66 215 1.7 2.6 0.00 0.00 0.00 98 1010.0
20260505193354 66 191 0.9 1.7 0.00 0.00 0.00 98 1009.0
20260505192853 66 7 1.7 1.7 0.00 0.00 0.00 98 1009.0
20260505192354 66 298 2.6 2.6 0.00 0.00 0.00 98 1010.0
20260505191853 66 227 0.0 1.7 0.00 0.00 0.00 98 1009.0
20260505191354 65 174 0.0 1.7 0.00 0.00 0.00 99 1010.0
20260505190853 65 229 0.0 1.7 0.00 0.00 0.00 99 1010.0
20260505190354 65 253 1.7 2.6 0.00 0.00 0.00 99 1009.0
20260505185854 65 236 0.0 2.6 0.00 0.00 0.00 99 1010.0
20260505185353 65 207 1.7 3.5 0.00 0.00 0.00 98 1009.0
20260505184854 65 192 1.7 2.6 0.00 0.00 0.00 98 1010.0
20260505184354 65 200 2.6 2.6 0.00 0.00 0.00 98 1010.0
20260505183854 65 215 0.9 1.7 0.00 0.00 0.00 98 1010.0
20260505183353 65 219 1.7 2.6 0.00 0.00 0.00 98 1010.0
20260505182855 65 291 0.0 2.6 0.00 0.00 0.00 98 1010.0
20260505182353 65 233 2.6 3.5 0.00 0.00 0.00 98 1010.0
20260505181854 65 224 0.9 2.6 0.00 0.00 0.00 98 1010.0
20260505181354 65 198 1.7 4.3 0.00 0.00 0.00 98 1010.0
20260505180854 65 213 0.9 2.6 0.00 0.00 0.00 98 1010.0
20260505180354 65 212 1.7 3.5 0.00 0.00 0.00 98 1009.0
20260505175854 65 264 2.6 4.3 0.00 0.00 0.00 98 1009.0
20260505175354 65 244 2.6 4.3 0.00 0.00 0.00 98 1010.0
20260505174853 65 241 1.7 2.6 0.00 0.00 0.00 98 1009.0
20260505174354 65 237 2.6 2.6 0.00 0.00 0.00 98 1010.0
20260505173853 66 259 1.7 3.5 0.00 0.00 0.00 98 1010.0
20260505173354 66 237 1.7 3.5 0.00 0.00 0.00 98 1010.0
20260505172854 66 114 0.9 3.5 0.00 0.00 0.00 98 1010.0
20260505172354 66 208 3.5 4.3 0.02 0.00 0.00 98 1010.0
20260505171853 66 252 0.9 2.6 0.02 0.00 0.00 98 1009.0
20260505171353 66 189 3.5 4.3 0.00 0.00 0.00 98 1010.0
20260505170853 66 248 1.7 3.5 0.00 0.00 0.00 98 1010.0
20260505170354 66 211 2.6 3.5 0.00 0.00 0.00 98 1010.0
20260505165854 66 291 2.6 3.5 0.00 0.00 0.00 98 1009.0
20260505165353 66 284 2.6 3.5 0.00 0.00 0.00 98 1009.0
20260505164854 66 269 1.7 3.5 0.00 0.00 0.00 98 1009.0
20260505164354 66 223 0.9 6.1 0.00 0.00 0.00 98 1009.0
20260505163854 66 207 1.7 4.3 0.00 0.00 0.00 98 1009.0
20260505163353 66 220 0.9 3.5 0.00 0.00 0.00 98 1009.0
20260505162853 66 245 2.6 4.3 0.00 0.00 0.00 98 1009.0
20260505162353 66 138 1.7 4.3 0.00 0.00 0.00 98 1009.0
20260505161853 66 238 1.7 2.6 0.00 0.00 0.00 98 1009.0
20260505161354 66 257 1.7 4.3 0.00 0.00 0.00 98 1010.0
20260505160853 66 331 1.7 2.6 0.00 0.00 0.00 98 1010.0
20260505160354 66 263 1.7 5.2 0.00 0.00 0.00 98 1009.0
20260505153353 66 232 2.6 3.5 0.00 0.00 0.10 98 1010.0
20260505152854 67 239 1.7 1.7 0.00 0.00 0.10 98 1010.0
20260505152359 66 283 1.7 2.6 0.00 0.00 0.10 98 1010.0
20260505151854 66 250 2.6 2.6 0.00 0.00 0.10 98 1010.0
20260505151353 67 284 0.9 2.6 0.00 0.00 0.10 98 1010.0
20260505150854 67 213 2.6 3.5 0.00 0.00 0.10 98 1010.0
20260505150353 67 245 0.9 2.6 0.00 0.00 0.10 97 1010.0
20260505140356 68 266 1.7 2.6 0.00 0.00 0.10 97 1010.0
20260505124853 67 255 1.7 2.6 0.00 0.00 0.10 97 1009.0
20260505124353 67 255 1.7 2.6 0.00 0.00 0.10 97 1009.0
20260505123853 67 265 2.6 2.6 0.00 0.00 0.10 97 1009.0
20260505123353 67 290 0.0 2.6 0.00 0.00 0.10 97 1009.0
20260505122854 67 278 2.6 3.5 0.00 0.00 0.10 97 1009.0
20260505122354 67 257 0.9 2.6 0.02 0.00 0.10 97 1009.0
20260505121854 67 222 1.7 3.5 0.02 0.00 0.10 97 1009.0
20260505121354 67 257 2.6 3.5 0.05 0.00 0.09 97 1009.0
20260505120853 67 257 2.6 2.6 0.12 0.00 0.09 96 1009.0
20260505120354 68 254 1.7 2.6 0.26 0.00 0.09 96 1009.0
20260505115854 68 211 1.7 4.3 0.35 0.00 0.07 96 1009.0
20260505115353 68 267 3.5 6.1 0.17 0.00 0.04 94 1009.0
20260505114853 69 269 0.9 5.2 0.07 0.00 0.01 93 1009.0
20260505114353 69 229 5.2 6.1 0.05 0.00 0.01 92 1009.0
20260505113853 70 271 1.7 5.2 0.00 0.00 0.00 90 1009.0
20260505113353 70 245 2.6 5.2 0.00 0.00 0.00 90 1009.0
20260505112853 70 254 4.3 6.1 0.00 0.00 0.00 89 1009.0
20260505112354 70 232 3.5 4.3 0.00 0.00 0.00 89 1009.0
20260505111854 70 258 4.3 5.2 0.00 0.00 0.00 88 1008.0
20260505111354 70 279 2.6 4.3 0.00 0.00 0.00 88 1009.0
20260505110854 70 217 3.5 5.2 0.00 0.00 0.00 88 1008.0
20260505110353 70 203 2.6 5.2 0.00 0.00 0.00 88 1009.0
20260505101853 71 277 4.3 7.0 0.00 0.00 0.00 87 1008.0
20260505101355 71 213 3.5 8.7 0.00 0.00 0.00 86 1008.0
20260505100853 71 259 4.3 6.1 0.00 0.00 0.00 86 1008.0
20260505100353 71 275 1.7 10.4 0.00 0.00 0.00 85 1008.0
20260505095853 72 238 2.6 7.0 0.00 0.00 0.00 84 1008.0
20260505095353 72 295 3.5 5.2 0.00 0.00 0.00 84 1008.0
20260505094853 72 238 3.5 7.8 0.00 0.00 0.00 83 1008.0
20260505094353 73 282 4.3 7.8 0.00 0.00 0.00 82 1008.0
20260505093854 73 253 5.2 6.1 0.00 0.00 0.00 80 1008.0
20260505093355 74 276 3.5 7.8 0.00 0.00 0.00 78 1008.0
20260505092853 74 242 6.1 7.0 0.00 0.00 0.00 78 1008.0
20260505092353 73 278 2.6 7.8 0.00 0.00 0.00 79 1008.0
20260505091854 73 246 4.3 7.8 0.00 0.00 0.00 80 1008.0
20260505091353 73 340 2.6 10.4 0.00 0.00 0.00 80 1008.0
20260505090854 73 294 2.6 9.6 0.00 0.00 0.00 79 1008.0
20260505090353 74 238 5.2 8.7 0.00 0.00 0.00 79 1008.0
20260505085854 74 285 4.3 8.7 0.00 0.00 0.00 77 1008.0
20260505085353 75 233 3.5 7.0 0.00 0.00 0.00 76 1008.0
20260505084854 76 266 6.1 7.8 0.00 0.00 0.00 74 1008.0
20260505084353 77 256 2.6 6.1 0.00 0.00 0.00 71 1008.0
20260505083853 77 239 2.6 6.1 0.00 0.00 0.00 70 1007.0
20260505083353 77 309 4.3 6.1 0.00 0.00 0.00 69 1007.0
20260505082854 78 246 6.1 9.6 0.00 0.00 0.00 68 1008.0
20260505082353 78 231 1.7 7.0 0.00 0.00 0.00 67 1008.0
20260505081853 78 214 6.1 8.7 0.00 0.00 0.00 67 1008.0
20260505081354 78 269 4.3 9.6 0.00 0.00 0.00 66 1008.0
20260505080854 78 282 3.5 11.3 0.00 0.00 0.00 65 1008.0
20260505080353 78 241 3.5 9.6 0.00 0.00 0.00 65 1008.0
20260505075853 78 243 5.2 7.8 0.00 0.00 0.00 63 1008.0
20260505075353 79 239 2.6 7.8 0.00 0.00 0.00 63 1008.0
20260505074855 79 295 3.5 6.1 0.00 0.00 0.00 63 1008.0
20260505074354 79 316 5.2 7.0 0.00 0.00 0.00 63 1008.0
20260505073854 79 302 7.8 8.7 0.00 0.00 0.00 63 1008.0
20260505073353 78 256 3.5 7.8 0.00 0.00 0.00 64 1008.0
20260505072853 79 260 3.5 5.2 0.00 0.00 0.00 62 1008.0
20260505072355 78 267 6.1 8.7 0.00 0.00 0.00 64 1008.0
20260505071854 77 207 3.5 5.2 0.00 0.00 0.00 65 1008.0
20260505071353 78 225 3.5 7.0 0.00 0.00 0.00 64 1008.0
20260505070853 78 250 3.5 7.8 0.00 0.00 0.00 65 1008.0
20260505070353 77 308 4.3 6.1 0.00 0.00 0.00 66 1009.0
20260505065853 77 285 2.6 7.0 0.00 0.00 0.00 66 1009.0
20260505065355 77 242 4.3 4.3 0.00 0.00 0.00 65 1009.0
20260505064853 77 230 3.5 7.8 0.00 0.00 0.00 66 1009.0
20260505064353 77 292 3.5 7.0 0.00 0.00 0.00 66 1009.0
20260505063853 77 250 6.1 9.6 0.00 0.00 0.00 67 1009.0
20260505063353 77 241 3.5 5.2 0.00 0.00 0.00 66 1009.0
20260505062854 78 287 3.5 8.7 0.00 0.00 0.00 65 1009.0
20260505062353 78 242 2.6 7.8 0.00 0.00 0.00 65 1009.0
20260505061853 76 299 5.2 7.0 0.00 0.00 0.00 67 1009.0
20260505061353 77 272 5.2 7.0 0.00 0.00 0.00 66 1009.0
20260505060853 77 272 3.5 7.0 0.00 0.00 0.00 65 1009.0
20260505060353 77 288 4.3 7.0 0.00 0.00 0.00 65 1009.0
20260505055853 78 244 5.2 9.6 0.00 0.00 0.00 64 1009.0
20260505055354 78 254 4.3 7.0 0.00 0.00 0.00 64 1010.0
20260505054853 78 309 4.3 7.8 0.00 0.00 0.00 62 1009.0
20260505054353 77 275 2.6 7.8 0.00 0.00 0.00 64 1009.0
20260505053855 76 227 1.7 7.8 0.00 0.00 0.00 66 1009.0
20260505053353 77 258 6.1 11.3 0.00 0.00 0.00 65 1010.0
20260505052853 77 264 4.3 7.0 0.00 0.00 0.00 64 1010.0
20260505052354 79 244 5.2 7.0 0.00 0.00 0.00 61 1010.0
20260505051853 79 264 4.3 7.0 0.00 0.00 0.00 61 1010.0
20260505051353 78 247 5.2 7.0 0.00 0.00 0.00 63 1010.0
20260505050853 77 229 4.3 6.1 0.00 0.00 0.00 64 1010.0
20260505050353 78 283 3.5 7.8 0.00 0.00 0.00 64 1010.0
20260505041422 78 269 4.3 8.7 0.00 0.00 0.00 62 1011.0
20260505040854 79 283 1.7 6.1 0.00 0.00 0.00 60 1011.0
20260505035915 78 279 2.6 5.2 0.00 0.00 0.00 59 1011.0
20260505035356 80 272 4.3 5.2 0.00 0.00 0.00 57 1011.0
20260505034853 81 310 1.7 7.8 0.00 0.00 0.00 55 1011.0
20260505034353 79 309 1.7 3.5 0.00 0.00 0.00 57 1011.0
20260505033853 77 226 1.7 7.0 0.00 0.00 0.00 61 1011.0
20260505033353 78 265 2.6 6.1 0.00 0.00 0.00 60 1011.0
20260505032853 79 282 2.6 8.7 0.00 0.00 0.00 58 1011.0
20260505032354 78 275 2.6 2.6 0.00 0.00 0.00 57 1011.0
20260505031853 79 240 4.3 6.1 0.00 0.00 0.00 54 1012.0
20260505031353 79 169 0.9 4.3 0.00 0.00 0.00 53 1012.0
20260505030854 79 239 3.5 6.1 0.00 0.00 0.00 55 1012.0
20260505030355 79 160 0.0 2.6 0.00 0.00 0.00 53 1012.0
20260505025855 80 77 0.9 4.3 0.00 0.00 0.00 53 1012.0
20260505025355 78 33 2.6 6.1 0.00 0.00 0.00 54 1012.0
20260505024855 80 305 2.6 5.2 0.00 0.00 0.00 52 1012.0
20260505024356 80 289 1.7 4.3 0.00 0.00 0.00 50 1012.0
20260505023853 79 96 2.6 4.3 0.00 0.00 0.00 50 1012.0
20260505023355 79 197 2.6 4.3 0.00 0.00 0.00 49 1012.0
20260505022855 79 175 3.5 3.5 0.00 0.00 0.00 49 1012.0
20260505022356 78 327 4.3 4.3 0.00 0.00 0.00 50 1012.0
20260505021855 79 339 3.5 4.3 0.00 0.00 0.00 50 1011.0
20260505021356 79 227 2.6 4.3 0.00 0.00 0.00 49 1012.0
20260505020854 78 294 1.7 4.3 0.00 0.00 0.00 51 1012.0
20260505020354 77 268 2.6 3.5 0.00 0.00 0.00 52 1012.0
20260505015853 77 273 1.7 4.3 0.00 0.00 0.00 52 1012.0
20260505015353 77 22 4.3 4.3 0.00 0.00 0.00 52 1012.0
20260505014854 77 180 1.7 3.5 0.00 0.00 0.00 51 1012.0
20260505014353 77 9 4.3 4.3 0.00 0.00 0.00 52 1012.0